Regional Weather Roundup
Issued by NWS

Home | Current Version | Previous Version | Graphics & Text | Print | Product List | Glossary On
Versions: 1 2 3 4 5 6 7 8 9 10 11 12 13 14 15 16 17 18 19 20 21 22 23 24 25 26 27 28 29 30 31 32 33 34 35 36 37 38 39 40 41 42 43 44 45 46 47 48 49 50
816
ASUS45 KCYS 081610
RWRWY

WYOMING REGIONAL WEATHER ROUNDUP
NATIONAL WEATHER SERVICE CHEYENNE WY
900 AM MST MON FEB 08 2016

NOTE:  "FAIR" INDICATES FEW OR NO CLOUDS BELOW 12,000 FEET
WITH NO SIGNIFICANT WEATHER AND/OR OBSTRUCTIONS TO VISIBILITY.

WYZ001-081700-
YELLOWSTONE NATIONAL PARK

CITY           SKY/WX    TMP DP  RH WIND       PRES   REMARKS
LK YELLOWSTONE   N/A     13   8  81 CALM      30.63R
W YELLOWSTONE  NOT AVBL

$$
WYZ002>013-054>058-071-098>099-081700-
NORTHERN WYOMING

CITY           SKY/WX    TMP DP  RH WIND       PRES   REMARKS
JACKSON        SUNNY      7   3  85 VRB7      30.65R WCI  -5
CODY           FAIR      28  16  59 CALM      30.44R
GREYBULL       FAIR      24  18  77 CALM      30.50R
WORLAND        FAIR      24  18  77 SW5       30.48R WCI  18
SHERIDAN       PTSUNNY   36  18  48 W7        30.40F WCI  30
BUFFALO        FAIR      35  19  52 N8        30.39F WCI  29
GILLETTE       CLOUDY    27  11  51 W9        30.39F WCI  18
HULETT         CLOUDY    28  10  47 SW5       30.39F WCI  23
NEWCASTLE      FAIR      28   5  37 NW23      30.35S WCI  14

$$
WYZ014>020-022>026-101>103-081700-
CENTRAL WYOMING

CITY           SKY/WX    TMP DP  RH WIND       PRES   REMARKS
BIG PINEY      FAIR      26  18  71 N15       30.55R WCI  14
PINEDALE       PTSUNNY   32  21  64 W24G30    30.53R WCI  19
DUBOIS         FAIR      36  19  51 W31G37    30.47S WCI  22
LANDER         FAIR      20  12  71 E3        30.47R
RIVERTON       FAIR      20  11  68 W5        30.48R WCI  13
CASPER         FAIR      27  14  58 SW9       30.44R WCI  18
DOUGLAS        PTSUNNY   27  16  63 NW13        N/A  WCI  16

$$
WYZ021-027>030-104>119-081700-
SOUTHERN WYOMING

CITY           SKY/WX    TMP DP  RH WIND       PRES   REMARKS
EVANSTON       FAIR      25  14  63 CALM      30.62S
FORT BRIDGER   SUNNY     32  19  59 W20       30.62S WCI  20
ROCK SPRINGS   NOT AVBL
DIXON          FAIR      18  11  74 SE6       30.60R WCI  10
RAWLINS        FAIR      24  15  68 W16       30.50R WCI  11
SARATOGA       FAIR      28  19  69 W10       30.51R WCI  19
LARAMIE          N/A     31  19  61 N8        30.40R WCI  23
CHEYENNE       FAIR      34  19  54 N15G24    30.37R WCI  24
TORRINGTON     CLOUDY    28  16  60 W7        30.40S WCI  21
PINE BLUFFS    FAIR      28  19  69 NW13      30.37S WCI  18

$$




USA.gov is the U.S. government's official web portal to all federal, state and local government web resources and services.